Location: Marcé
(47.5801°N, 0.3280°W)
Time: 06:50:58
(UTC+01:00)

Altair - Pass Details

Date: 17 December 2021
Orbit: 1501 x 1683 km, 47.2° (Epoch: 21 January)

Event Time Altitude Azimuth Distance (km) Brightness Sun altitude
Rises 10:52:01 0° 186° (S) 4,894 11.1 13.6°
Reaches altitude 10° 10:56:16 10° 171° (S) 3,887 11.3 14.0°
Maximum altitude 11:02:53 20° 129° (SE) 3,097 10.6 14.5°
Drops below altitude 10° 11:09:22 10° 86° (E) 3,806 9.9 15.0°
Sets 11:13:26 0° 71° (ENE) 4,762 10.2 15.3°
